Location: Bois de la Silve
(44.4667°N, 6.7833°E)
Time: 04:33:15
(UTC+00:00)

Spot 4 Rocket - Pass Details

Date: 14 July 2020
Orbit: 777 x 781 km, 98.7° (Epoch: 06 August)

Event Time Altitude Azimuth Distance (km) Brightness Sun altitude
Rises 03:03:15 0° 10° (N) 3,272 8.2 -9.1°
Reaches altitude 10° 03:05:35 10° 8° (N) 2,341 7.3 -8.8°
Maximum altitude 03:10:41 63° 288° (WNW) 869 4.2 -8.1°
Drops below altitude 10° 03:15:45 10° 208° (SSW) 2,327 5.9 -7.5°
Enters shadow 03:16:29 - 207° (SSW) 2,617 6.2 -7.4°
